Find Starlink 34029

NORAD ID: 63805 Int'l Des: 2025-092 Owner: SPXS Country: US Constellation: starlink operational
LEOCIRCULAR

Live Position

Loading 3D Globe...

About Starlink 34029

Description loading...

Upcoming Passes

Passes for default location (London). Set your location on the main map for personalized predictions.

Altitude History

Loading altitude history...

Two-Line Element Set

1 63805U 25092B 26126.57694245 .00022158 00000-0 81273-3 0 9991
2 63805 43.0003 205.9835 0001777 274.0707 85.9941 15.27561824 57464
Epoch: May 6, 2026 • Age: 10 hours

Current Status

Altitude 484.8 km
Velocity 7.63 km/s
Sub-Earth Point 31.01°N, 121.42°E
Launch Date May 4, 2025
Age 1 years
Type internet

Technical Details

Classification Payload
Mass 575.00 kg
Dry Mass 530.00 kg
Total Mass 575.00 kg
Length 0.30 m
Diameter 4.10 m
Span 29.00 m
Shape Box + pan
Manufacturer SPXS
Bus Type Starlink V2MO
Phase Status In Orbit
Owner/State SPXS/US

Most Searched